Location: Albany
(35.0170°S, 117.8920°E)
Time: 01:17:23
(UTC+08:00)

Explorer 7 - Pass Details

Date: 26 January 2021
Orbit: 484 x 677 km, 50.3° (Epoch: 01 March)

Event Time Altitude Azimuth Distance (km) Brightness Sun altitude
Rises 14:53:03 0° 317° (NW) 3,019 11.1 52.6°
Reaches altitude 10° 14:55:24 10° 318° (NW) 2,114 10.5 52.2°
Maximum altitude 15:00:19 74° 42° (NE) 709 8.1 51.2°
Drops below altitude 10° 15:05:11 10° 127° (SE) 2,099 9.5 50.2°
Sets 15:07:31 0° 128° (SE) 2,995 10.2 49.8°
